FORMOSAT 7-4 (44350 NORAD) Tracking and Keplerian Element Data

This shows tracking and keplerian element data for the satellite.

Feedback or suggestion? Click here.




ElementValue
Catalog44350
NameFORMOSAT 7-4
Epoch Orbit399
Epoch Day203.93164178
Epoch Year2019
RAAN30.7694
Inclination24.0009
Eccentricity0.0012086
Argument of Perigee132.9432
Mean Anonmoly227.3831
Mean Motion14.53284953
Decay Rate6.94E-05
L11 44350U 19036M 19203.93164178 .00006940 00000-0 15894-2 0 9997
L22 44350 24.0009 30.7694 0012086 132.9432 227.3831 14.53284953 3994

Live tracking and technical data element details for FORMOSAT 7-4 (NORAD 44350). FORMOSAT 7-4 can be tracked NOW for your location showing map with azimuth and elevation plus other details from your city location.

Track the satellite on the map from your city or location and see movement details for azimuth, elevation, latitude, longitude, range, height, and movement on the map or in text.







IsCatalogInMostPopularTable: catalog: 44350, numindb: 12
Update: records affected: 1



GetName: 44350 FORMOSAT 7-4

Hit Count: updated at: Wed, 23 Oct 2019 00:21:48 GMT